Location: ????
(30.1475°N, 31.1342°E)
Time: 02:16:55
(UTC+00:00)

ARIANE 5 R/B - Pass Details

Date: 29 March 2023
Orbit: 748 x 794 km, 98.8° (Epoch: 29 May)

Event Time Altitude Azimuth Distance (km) Brightness Sun altitude
Rises 02:52:39 0° 358° (N) 3,277 5.9 -12.9°
Reaches altitude 10° 02:55:15 10° 347° (NNW) 2,351 5.0 -12.4°
Maximum altitude 02:59:35 28° 290° (WNW) 1,455 3.5 -11.4°
Drops below altitude 10° 03:03:57 10° 233° (SW) 2,354 4.5 -10.5°
Enters shadow 03:04:04 10° 232° (SW) 2,390 4.5 -10.5°
